Date String (YYYY-MM-DD hh:mm:ss) UTC,Instrument flags,Ambient pressure (hPa),Sample flow (lpm),Bypass flow (lpm),Sample temperature (°C),Ambient temperature (°C),ASC tube jacket temperature (°C),LED temperature (°C),Box temperature (°C),Sample RH (%),Span deviation,Mass concentration (μg/m³),Mass concentration (μg/m³),Mass concentration (μg/m³)
DateTimeUTC,F1_M11,P_M11,Q1_M11,Q2_M11,T1_M11,T2_M11,T3_M11,T4_M11,T5_M11,U1_M11,ZSPAN_M11,X0_M11,X2_M11,X1_M11
2023-01-11 12:00:00,,0815.7,5.01,0.00,22.4,20.9,00.0,31.3,24.2,17.8,-003.4,0007.92,0004.59,0004.37
2023-01-11 12:01:00,,0815.7,4.99,0.00,22.4,20.9,00.0,31.3,24.2,17.8,-003.7,0008.05,0004.60,0004.38
2023-01-11 12:02:00,,0815.5,5.00,0.00,22.4,20.9,00.0,31.3,24.2,17.8,-003.9,0008.04,0004.61,0004.37
2023-01-11 12:03:00,,0815.4,4.99,0.00,22.4,20.9,00.0,31.3,24.1,17.8,-003.6,0008.02,0004.59,0004.35
2023-01-11 12:04:00,,0815.4,5.00,0.00,22.4,20.9,00.0,31.3,24.1,17.9,-003.8,0007.99,0004.57,0004.34
2023-01-11 12:05:00,,0815.4,5.00,0.00,22.3,20.8,00.0,31.3,24.1,17.9,-003.8,0007.96,0004.55,0004.32
2023-01-11 12:06:00,,0815.4,5.00,0.00,22.3,20.8,00.0,31.3,24.1,17.9,-003.8,0007.74,0004.55,0004.32
2023-01-11 12:07:00,,0815.4,4.98,0.00,22.3,20.8,00.0,31.2,24.1,17.9,-003.7,0007.62,0004.55,0004.32
2023-01-11 12:08:00,,0815.9,5.00,0.00,22.3,20.8,00.0,31.2,24.1,18.0,-003.4,0007.58,0004.53,0004.31
2023-01-11 12:09:00,,0816.1,5.00,0.00,22.3,20.8,00.0,31.2,24.1,18.0,-003.3,0007.49,0004.49,0004.29
2023-01-11 12:10:00,,0816.0,5.00,0.00,22.3,20.8,00.0,31.2,24.1,18.1,-003.7,0007.26,0004.45,0004.26
2023-01-11 12:11:00,,0816.0,5.01,0.00,22.3,20.8,00.0,31.2,24.1,18.1,-003.7,0006.83,0004.42,0004.24
2023-01-11 12:12:00,,0816.1,5.01,0.00,22.3,20.8,00.0,31.2,24.1,18.2,-003.7,0006.49,0004.36,0004.20
2023-01-11 12:13:00,,0816.0,5.01,0.00,22.3,20.8,00.0,31.2,24.1,18.3,-003.6,0006.69,0004.32,0004.17
2023-01-11 12:14:00,,0815.9,4.97,0.00,22.3,20.8,00.0,31.2,24.1,18.3,-003.6,0006.73,0004.28,0004.13
2023-01-11 12:15:00,,0816.0,4.99,0.00,22.3,20.8,00.0,31.2,24.0,18.4,-003.2,0006.65,0004.23,0004.09
2023-01-11 12:16:00,,0816.0,5.01,0.00,22.3,20.8,00.0,31.2,24.0,18.4,-003.1,0006.72,0004.21,0004.07
2023-01-11 12:17:00,,0816.1,4.97,0.00,22.3,20.8,00.0,31.2,24.0,18.5,-003.2,0007.17,0004.17,0004.03
2023-01-11 12:18:00,,0816.0,5.02,0.00,22.3,20.8,00.0,31.2,24.0,18.5,-003.1,0007.19,0004.13,0003.98
2023-01-11 12:19:00,,0815.7,4.97,0.00,22.2,20.8,00.0,31.2,24.0,18.6,-003.2,0007.21,0004.09,0003.94
2023-01-11 12:20:00,,0815.8,5.01,0.00,22.2,20.8,00.0,31.2,24.0,18.6,-003.0,0007.34,0004.06,0003.91
2023-01-11 12:21:00,,0816.0,5.00,0.00,22.2,20.8,00.0,31.1,24.0,18.5,-002.5,0007.37,0004.06,0003.90
2023-01-11 12:22:00,,0816.0,4.97,0.00,22.2,20.7,00.0,31.1,24.0,18.5,-002.6,0007.22,0004.02,0003.87
2023-01-11 12:23:00,,0815.6,5.00,0.00,22.2,20.7,00.0,31.1,24.0,18.6,-002.5,0007.31,0004.01,0003.85
2023-01-11 12:24:00,,0815.7,5.02,0.00,22.2,20.8,00.0,31.1,24.0,18.5,-002.2,0007.52,0004.01,0003.84
2023-01-11 12:25:00,,0815.4,5.03,0.00,22.2,20.8,00.0,31.1,24.0,18.5,-002.1,0007.57,0004.00,0003.84
2023-01-11 12:26:00,,0815.4,4.99,0.00,22.2,20.7,00.0,31.1,24.0,18.6,-002.3,0007.68,0004.00,0003.84
2023-01-11 12:27:00,,0815.4,4.98,0.00,22.2,20.7,00.0,31.1,24.0,18.7,-002.3,0007.70,0003.97,0003.81
2023-01-11 12:28:00,,0815.4,4.97,0.00,22.2,20.7,00.0,31.1,24.0,18.8,-002.1,0007.46,0003.96,0003.80
2023-01-11 12:29:00,,0815.4,5.01,0.00,22.2,20.7,00.0,31.1,23.9,18.8,-002.3,0007.37,0003.96,0003.79
2023-01-11 12:30:00,,0815.5,4.99,0.00,22.2,20.7,00.0,31.1,23.9,18.8,-002.3,0007.26,0003.94,0003.77
2023-01-11 12:31:00,,0815.5,4.99,0.00,22.2,20.7,00.0,31.1,23.9,18.8,-002.8,0007.01,0003.94,0003.76
2023-01-11 12:32:00,,0815.4,5.01,0.00,22.2,20.6,00.0,31.1,23.9,18.8,-002.6,0006.99,0003.91,0003.74
2023-01-11 12:33:00,,0815.4,5.00,0.00,22.1,20.6,00.0,31.1,23.9,18.8,-002.4,0007.19,0003.92,0003.73
2023-01-11 12:34:00,,0815.4,5.01,0.00,22.1,20.6,00.0,31.1,23.9,18.8,-002.5,0007.12,0003.90,0003.72
2023-01-11 12:35:00,,0815.4,5.00,0.00,22.1,20.6,00.0,31.1,23.9,18.7,-002.6,0006.58,0003.88,0003.71
2023-01-11 12:36:00,,0815.4,4.98,0.00,22.1,20.6,00.0,31.0,23.9,18.7,-002.7,0007.24,0003.89,0003.70
2023-01-11 12:37:00,,0815.3,5.04,0.00,22.1,20.6,00.0,31.0,23.8,18.7,-002.7,0007.33,0003.92,0003.70
2023-01-11 12:38:00,,0815.4,5.00,0.00,22.1,20.7,00.0,31.0,23.8,18.7,-002.6,0007.41,0003.93,0003.71
2023-01-11 12:39:00,,0815.4,5.00,0.00,22.2,21.4,00.0,31.0,24.0,18.8,-002.8,0007.51,0003.95,0003.70
2023-01-11 12:40:00,,0815.4,5.00,0.00,22.3,22.3,00.0,31.0,24.3,18.7,-002.6,0007.59,0003.95,0003.68
2023-01-11 12:41:00,,0815.4,4.99,0.00,22.4,22.7,00.0,31.0,24.4,18.7,-002.7,0008.20,0003.99,0003.67
2023-01-11 12:42:00,,0815.3,5.00,0.00,22.4,22.3,00.0,31.1,24.4,18.7,-002.5,0008.50,0003.98,0003.65
2023-01-11 12:43:00,,0815.3,5.01,0.00,22.4,22.0,00.0,31.1,24.3,18.7,-002.5,0008.51,0003.97,0003.63
2023-01-11 12:44:00,,0815.4,5.01,0.00,22.4,21.7,00.0,31.2,24.3,18.7,-003.0,0008.38,0003.94,0003.61
2023-01-11 12:45:00,,0815.4,4.99,0.00,22.4,21.6,00.0,31.2,24.3,18.7,-003.4,0008.39,0003.94,0003.59
2023-01-11 12:46:00,,0815.4,5.00,0.00,22.4,21.4,00.0,31.2,24.3,18.7,-003.8,0008.34,0003.92,0003.55
2023-01-11 12:47:00,,0815.5,5.00,0.00,22.4,21.3,00.0,31.2,24.3,18.7,-004.0,0007.81,0003.86,0003.52
2023-01-11 12:48:00,,0815.4,5.01,0.00,22.4,21.2,00.0,31.2,24.2,18.7,-003.9,0007.89,0003.83,0003.48
2023-01-11 12:49:00,,0815.5,5.01,0.00,22.4,21.1,00.0,31.2,24.2,18.8,-004.3,0008.40,0003.82,0003.46
2023-01-11 12:50:00,,0815.4,5.00,0.00,22.4,21.1,00.0,31.2,24.2,18.8,-004.7,0008.51,0003.77,0003.43
2023-01-11 12:51:00,,0815.5,5.00,0.00,22.4,21.1,00.0,31.2,24.2,18.8,-005.2,0008.45,0003.72,0003.40
2023-01-11 12:52:00,,0815.5,5.00,0.00,22.4,21.0,00.0,31.2,24.2,18.9,-002.4,0008.01,0003.67,0003.38
2023-01-11 12:53:00,,0815.8,4.99,0.00,22.4,21.0,00.0,31.2,24.1,18.9,-001.7,0007.54,0003.62,0003.36
2023-01-11 12:54:00,,0815.8,5.02,0.00,22.4,20.9,00.0,31.2,24.1,19.0,0000.0,0007.46,0003.58,0003.34
2023-01-11 12:55:00,,0815.7,5.00,0.00,22.4,20.8,00.0,31.2,24.1,19.1,0000.0,0007.41,0003.54,0003.31
2023-01-11 12:56:00,,0815.6,5.01,0.00,22.3,20.8,00.0,31.2,24.1,19.2,0000.0,0007.29,0003.49,0003.28
2023-01-11 12:57:00,,0815.8,4.98,0.00,22.3,20.8,00.0,31.2,24.1,19.2,-001.4,0007.32,0003.47,0003.25
2023-01-11 12:58:00,,0816.1,5.00,0.00,22.3,20.7,00.0,31.2,24.1,19.3,-002.8,0007.12,0003.45,0003.23
2023-01-11 12:59:00,,0816.1,5.02,0.00,22.3,20.7,00.0,31.2,24.0,19.3,0000.0,0006.37,0003.38,0003.20
